User: anonymous   Login
Location: Maiden
(35.5760°N, 81.2120°W)
Time: 14:04:09
(UTC-04:00)
Language:

Cosmos 2151 - Orbit

View from above orbital plane
View from above orbital plane
View from above satellite
View from above satellite

Ground track
Ground track

The orbit data is extracted from the following two-line orbital elements,

1 21422U 91042A   16147.83167150  .00000322  00000-0  29459-4 0  9997
2 21422  82.5018 254.0413 0015394 140.0766 220.1589 14.91630673350906
Epoch (UTC): 26 May 2016 19:57:36
Eccentricity: 0.0015394
inclination: 82.5018°
perigee height: 582 km
apogee height: 603 km
right ascension of ascending node: 254.0413°
argument of perigee: 140.0766°
revolutions per day: 14.91630673
mean anomaly at epoch: 220.1589°
orbit number at epoch: 35090

The dashed part of the orbit path shows where the satellite is in the earth's shadow,  

DLR